Location: Doschendorf
(50.0069°N, 11.0602°E)
Time: 17:31:48
(UTC+00:00)

Cosmos 1328 Rocket - Pass Details

Date: 17 November 2019
Orbit: 600 x 628 km, 82.5° (Epoch: 05 December)

Event Time Altitude Azimuth Distance (km) Brightness Sun altitude
Rises 16:58:14 0° 167° (SSE) 2,897 7.0 -14.1°
Reaches altitude 10° 17:00:34 10° 159° (SSE) 1,992 6.1 -14.4°
Maximum altitude 17:04:39 38° 92° (E) 962 4.0 -15.1°
Enters shadow 17:08:00 14° 29° (NNE) 1,732 5.5 -15.6°
